Regional Weather Roundup
Issued by NWS Wakefield, VA

Home | Current Version | Previous Version | Text Only | Print | Product List | Glossary Off
Versions: 1 2 3 4 5 6 7 8 9 10 11 12 13 14 15 16 17 18 19 20 21 22 23 24 25 26 27 28 29 30 31 32 33 34 35 36 37 38 39 40 41 42 43 44 45 46 47 48 49 50

000
ASUS41 KAKQ 261810
RWRAKQ

REGIONAL WEATHER ROUNDUP
NATIONAL WEATHER SERVICE WAKEFIELD VA
100 PM EST WED NOV 26 2014

Note: "fair" indicates few or no clouds below 12,000 feet with no
significant weather and/or obstructions to visibility. * = Denotes
station may not report precipitation (e.g., rain,snow,etc.),
thunder or fog.

VAZ042-051-052>054-056-261900-
NORTHERN VIRGINIA

CITY           SKY/WX    TMP DP  RH WIND       PRES   REMARKS
WASH NATIONAL  LGT RAIN  38  33  82 N15       29.92F
DULLES         LGT SNOW  32  31  96 N13       29.94F FOG     WCI  22
FORT BELVOIR   DRIZZLE   36  34  92 N9        29.92F
QUANTICO       LGT RAIN  37  33  85 N14G24    29.93F
FREDERICKSBRG* CLOUDY    38  38 100 N8        29.90F
STAFFORD*      RAIN      35  35 100 NW9       29.95F
WARRENTON      LGT SNOW  35  35 100 N9        29.91F
CULPEPER*      MIX PCPN  34  34 100 N8        29.93F
MANASSAS*      NOT AVBL
LEESBURG*      LGT SNOW  34  34 100 N7        29.96F
WINCHESTER     LGT SNOW  34  32  93 NW3       29.96F VSB 3/4
FRONT ROYAL*   CLOUDY    32  32 100 CALM      29.96F VSB 3/4
LURAY*         LGT SNOW  34  34 100 CALM      29.96  VSB 1
$$

VAZ048-049-060>072-079>083-261900-
CENTRAL AND SOUTH CENTRAL VIRGINIA

CITY           SKY/WX    TMP DP  RH WIND       PRES   REMARKS
RICHMOND       LGT RAIN  41  37  86 N13G22    29.87F
CHESTERFIELD*  CLOUDY    39  28  65 N10G16    29.88F
PETERSBURG*    LGT RAIN  42  41  95 N9G18     29.86F
HANOVER        LGT RAIN  38  36  92 N7        29.90F
TAPPAHANNOCK*  DRIZZLE   40  36  86 N10G16    29.86F
QUINTON*       CLOUDY    39  37  93 N6G17     29.85F
CHARLOTTSVILLE LGT RAIN  34  33  96 NW3       29.93F FOG
GORDONSVILLE*  CLOUDY    34  32  94 N5        29.92F FOG
ORANGE*        MIX PCPN  34  34 100 NW10G17   29.93F
LOUISA*        LGT RAIN  36  34  93 N9        29.90F
BUMPASS*       CLOUDY    37  35  94 N7        29.90F
FARMVILLE*     LGT RAIN  39  39 100 NW8       29.85
CREWE*         CLOUDY    39  37  93 NW8       29.88S
FORT PICKETT*  CLOUDY    40  39  96 N12       29.86F
CHASE CITY*    CLOUDY    42  41  97 NW6       29.90F
CLARKSVILLE*   CLOUDY    41  39  93 NW9G17    29.90F
SOUTH HILL*    CLOUDY    42  40  93 N14G20    29.91R
LAWRENCEVILLE* CLOUDY    42  41  97 N8        29.82F
$$

VAZ088>098-261900-
SOUTHEAST VIRGINIA

CITY           SKY/WX    TMP DP  RH WIND       PRES   REMARKS
NORFOLK        HVY RAIN  46  43  89 N23G36    29.76F FOG
VIRGINIA BEACH RAIN      47  43  86 N26G35    29.73F FOG
NORFOLK NAVAL  RAIN      47  42  83 N22G33    29.80F FOG
WEST POINT*    CLOUDY    44  40  88 N8G17     29.86S
SALUDA*        CLOUDY    42  39  91 N15       29.83F
NEWPORT NEWS   HVY RAIN  46  41  82 N14G23    29.79F
LANGLEY AFB    LGT RAIN  45  45 100 N21G31    29.79F FOG
FORT EUSTIS    HVY RAIN  43  43 100 N9G18     29.78F FOG
WILLIAMSBURG*  CLOUDY    45  45 100 N7G20     29.83F
HR EXEC AP*    CLOUDY    45  41  87 N12G17    29.80F
FRANKLIN*      CLOUDY    45  43  93 N8G18     29.79F
WAKEFIELD      LGT RAIN  44  41  89 VRB7      29.80F
$$

VAZ020-022-025-037-045-261900-
WEST CENTRAL AND SOUTHWEST VIRGINIA

CITY           SKY/WX    TMP DP  RH WIND       PRES   REMARKS
STAUNTON*        N/A    N/A N/A N/A MISG        N/A
WAYNESBORO*    CLOUDY    32  32  99 CALM      29.94F VSB 1/2
HOT SPRINGS VA   N/A    N/A N/A N/A MISG        N/A
LYNCHBURG      LGT RAIN  35  35 100 NW5       29.97S FOG
DANVILLE       LGT RAIN  40  36  86 NW12      29.98R
SOUTH BOSTON*  CLOUDY    40  38  92 NW14      29.94S
MARTINSVILLE   LGT RAIN  39  39 100 CALM      30.00S
ROANOKE        LGT RAIN  35  33  92 NW6       29.99F
BLACKSBURG     LGT RAIN  36  36 100 W3        29.97F
DUBLIN*        LGT RAIN  37  37 100 CALM      29.97F
MARION*        CLOUDY    36  34  93 SW8       29.99S FOG
HILLSVILLE*    CLOUDY    34  33  97 NW7       29.94S
RICHLANDS*     FOG       37  36  93 CALM      29.97F VSB<1/4
WISE*          CLOUDY    41  37  87 W7        29.98F
ABINGDON*      DRIZZLE   40  38  93 W6        30.00F
$$

MDZ021>025-VAZ099-100-261900-
SOUTHERN MARYLAND AND THE DELMARVA PENINSULA

CITY           SKY/WX    TMP DP  RH WIND       PRES   REMARKS
PATUXENT RIVER LGT RAIN  39  36  89 N20G26    29.86F
BAY BRIDGE APT RAIN      36  34  93 N13G21    29.91F
LEONARDTOWN    CLOUDY    36  34  93 N7G16     29.88F
DOVER          LGT RAIN  37  37 100 NW18G29   29.89F
GEORGETOWN     RAIN      41  38  89 N15G24    29.86F FOG
EASTON         RAIN      37  37 100 N15       29.92F FOG
CAMBRIDGE      CLOUDY    37  36  93 N14G21    29.85F
SALISBURY      HVY RAIN  43  39  86 N18G26    29.80F FOG
OCEAN CITY     LGT RAIN  43  40  89 N17G28    29.81F
WALLOPS ISLAND LGT RAIN  43  41  93 N15G29    29.79S
ACCOMACK*      RAIN      43  39  87 N18G30    29.75F
$$

NCZ012>017-030>032-261900-
NORTH CENTRAL AND EASTERN NORTH CAROLINA

CITY           SKY/WX    TMP DP  RH WIND       PRES   REMARKS
ROANOKE RAPIDS LGT RAIN  43  41  93 NE9G23    29.79F
RALEIGH        LGT RAIN  44  40  85 VRB7      29.91F
ELIZABETH CITY RAIN      49  44  83 N21       29.74R
AHOSKIE*       DRIZZLE   44  42  92 N8G17     29.83R
EDENTON*       RAIN      46  45  95 N15G23    29.75F
CURRITUCK*     LGT RAIN  46  44  92 N16G29    29.73F
KILL DEVIL HLS LGT RAIN  51  50  99 N14G28    29.71R
MANTEO         RAIN      51  50  97 N18G32    29.72R
CAPE HATTERAS  LGT RAIN  55  55 100 NW14G24   29.68R
TARBORO*       LGT RAIN  46  43  91 N15       29.78F
GOLDSBORO      CLOUDY    46  46 100 N8G16     29.81R
WASHINGTON     CLOUDY    45  44  94 N15       29.75F
GREENVILLE     LGT RAIN  45  45 100 N15G26    29.79F
NEW BERN       LGT RAIN  49  44  83 N13G23    29.78S
WILMINGTON     LGT RAIN  49  46  90 NW14      29.87R
$$

VAZ048-261900-
ELSEWHERE

CITY           SKY/WX    TMP DP  RH WIND       PRES   REMARKS
HARRISBURG PA  LGT SNOW  33  31  92 NW5       29.99F VSB 3/4
BALTIMORE      LGT SNOW  34  32  92 N7        29.92F FOG
ANNAPOLIS      LGT RAIN  36  34  92 N12       29.90F FOG
ANDREWS AFB    LGT RAIN  33  32  96 N10       29.88F
PHILADELPHIA   LGT SNOW  36  32  85 N18       29.94F FOG
WILDWOOD NJ*   CLOUDY    39  36  87 N21G26    29.81F
HENDERSON NC   DRIZZLE   42  39  90 NW8G17    29.91R
GREENSBORO     LGT RAIN  40  37  89 NW9       29.97F FOG
ROCKY MOUNT    CLOUDY    47  43  86 N14G24    29.81F
$$

VAZ100-261900-
MARINE

STATION/POSITION TIME  TEMP    WIND        PRES    WAVE   SWELL
                       AIR SEA DIR/SP/G            HT/PER HT/PER
                 (UTC) (F)     (DEG/KT/KT) (MB)    (FT/S) (FT/S)
CAPE MAY NJ      1800   40 51   10/  8/ 16 1009.9F
LEWES DE         1800   42 48   10/ 25/ 32 1009.9F
15NM E FENWICK I 1800   48 56              1006.3F  10/ 7
OCEAN-CITY-INLET 1800   43 50   10/ 23/ 29 1009.0R
WACHAPREAGUE VA  1800   43 51   10/ 13/ 21 1007.0F
THOMAS POINT MD  1800   36 47   10/ 23/ 26 1012.4F
GOOSES REEF MD   1800   39 48   20/ 23/ 31 1011.6F   3/ 3
COVE POINT MD    1800   38      20/ 26/ 30 1011.0F
SOLOMONS ISLAND  1800      50                N/A
BISHOPS HEAD MD  1800   40 46  360/ 12/ 21 1009.5F
PINEY POINT MD   1800           20/ 12/ 17   N/A
POTOMAC MD       1800   42 49   10/ 19/ 25 1009.4F
CAMBRIDGE MD     1800   39 45  360/ 18/ 20 1010.5F
LEWISETTA VA     1800   41 49   10/ 15/ 22 1010.5S
RAPPAHANNOCK LGT 1800          360/ 36/ 39 1008.0F
STINGRAY PT      1800   44 49  360/ 23/ 29 1010.0R   4/ 4
YORK RVR RNG VA  1800   44      10/ 27/ 31 1008.0R
YORKTOWN VA      1800   44 51  350/ 18/ 23 1009.6R
JAMESTOWN VA     1800   42 51   20/ 10/ 17   N/A     1
DOMINION TERM VA 1800   45      70/  3/  8 1008.6F
KIPTOPEKE VA     1800      56   10/ 24/ 31   N/A
CHES BAY BRIDGE  1800   45 52  350/ 34/ 39 1006.8R
CAPE HENRY VA    1800   45     350/ 37/ 43 1005.4F
CHESAPEAKE LGHT  1700   48     350/ 33/ 36 1008.0R
WILLOUBY STN VA  1800   44     360/ 25/ 30 1006.6S
S CRANEY ISL VA  1800          320/ 18/ 23 1008.7R
CAPE HENRY BUOY  1700      56                N/A    10/ 8   2/11
1ST LANDING BUOY 1800   47 54  360/ 29/ 37 1006.9F   7/ 5
CAPE CHARLES BUO 1800      55                N/A     8/ 8   7/ 8
64NM E OF VA BCH 1800   60 66  360/ 21/ 25 1002.4F  12/ 8
DUCK PIER NC     1800   50 58  350/ 32/ 37 1003.6R
44100 DUCK FRF   1800      59                N/A    11/ 8   2/11
44056 DUCK FRF   1800      58                N/A    10/ 8   2/11
OREGON INLET NC  1800   53 58  330/ 17/ 22 1005.1S
HATTERAS NC      1800   55 63  310/ 24/ 27 1005.6R
DIAMOND SHLS NC  1800   73     220/ 25/ 31 1003.4F  13/ 8   2/16
CAPE LOOKOUT NC  1700          310/ 19/ 22 1006.4R
$$



USA.gov is the U.S. government's official web portal to all federal, state and local government web resources and services.